Precipitable_Water
0.84 0.83 0.82 0.81 0.80 0.79 0.78 0.78 0.77 0.76 0.75 0.73 0.71 0.68 0.66 0.64 0.62 0.59 0.56 0.54 0.51 0.49 0.47 0.45 0.45 0.46 0.48 0.52 0.56 0.60 0.71 0.69 0.70 0.74 0.77 0.78 0.81 0.95 0.97 1.02 1.02 0.98 1.01 0.94 0.86 0.85 0.93 1.06 1.20 1.33 1.27 1.25 1.17 1.15 1.33 1.42 1.49 1.36 1.06 0.95 0.78 0.87 0.88 1.06 1.05 1.18 1.30 1.25 1.40 1.52 1.58 1.51 1.42 1.62 1.69 1.82 1.63 1.62 1.65 1.63 1.73 1.88 1.78 1.80 1.79 1.84 1.76 1.70
0.85 0.84 0.83 0.82 0.81 0.79 0.78 0.77 0.77 0.76 0.75 0.73 0.72 0.69 0.66 0.64 0.62 0.58 0.55 0.53 0.52 0.49 0.47 0.46 0.44 0.45 0.46 0.48 0.52 0.58 0.64 0.64 0.64 0.73 0.75 0.83 0.87 0.94 1.01 1.05 1.04 0.97 1.00 0.87 0.79 0.78 0.83 0.94 1.08 1.19 1.19 1.07 1.23 1.08 1.36 1.23 1.43 1.10 1.05 0.95 0.78 0.92 0.97 1.21 1.19 1.27 1.28 1.27 1.40 1.46 1.56 1.53 1.46 1.58 1.64 1.48 1.47 1.54 1.49 1.58 1.72 1.66 1.71 1.80 1.82 1.80 1.70 1.62
0.85 0.84 0.84 0.83 0.82 0.80 0.78 0.77 0.76 0.75 0.75 0.74 0.72 0.69 0.66 0.64 0.61 0.57 0.54 0.53 0.51 0.50 0.49 0.47 0.46 0.44 0.44 0.46 0.48 0.55 0.57 0.55 0.66 0.65 0.65 0.90 0.85 0.92 0.99 1.02 0.98 0.98 0.92 0.78 0.78 0.78 0.81 0.92 1.02 1.11 1.10 1.01 1.11 1.02 1.15 1.10 1.23 1.13 1.05 0.85 0.89 1.06 1.10 1.17 1.23 1.22 1.34 1.37 1.35 1.40 1.47 1.54 1.54 1.58 1.70 1.41 1.38 1.46 1.42 1.43 1.55 1.57 1.56 1.65 1.74 1.74 1.63 1.56
0.84 0.84 0.83 0.82 0.81 0.80 0.79 0.77 0.75 0.74 0.74 0.74 0.73 0.70 0.67 0.64 0.60 0.56 0.54 0.52 0.52 0.50 0.49 0.48 0.46 0.44 0.43 0.43 0.47 0.51 0.50 0.48 0.51 0.65 0.78 0.87 0.96 0.92 0.92 0.94 0.94 0.97 0.92 0.82 0.76 0.76 0.81 0.91 0.98 0.99 0.95 0.98 0.96 1.05 0.93 1.05 1.09 1.07 1.00 0.87 0.94 1.13 1.03 1.15 1.25 1.25 1.32 1.38 1.31 1.38 1.47 1.43 1.53 1.52 1.49 1.40 1.31 1.36 1.43 1.59 1.56 1.52 1.56 1.62 1.70 1.66 1.60 1.51
0.83 0.83 0.83 0.82 0.81 0.80 0.79 0.77 0.76 0.74 0.73 0.72 0.72 0.70 0.67 0.64 0.59 0.56 0.54 0.53 0.51 0.51 0.50 0.49 0.47 0.46 0.42 0.43 0.46 0.50 0.34 0.39 0.54 0.75 0.87 0.85 0.92 0.89 0.93 0.95 0.98 0.94 0.88 0.79 0.82 0.81 0.85 0.86 0.89 0.85 0.84 0.83 0.85 0.90 0.94 1.05 1.13 1.04 0.94 1.03 1.08 1.17 1.04 1.17 1.24 1.28 1.27 1.37 1.35 1.35 1.29 1.32 1.61 1.53 1.47 1.43 1.22 1.25 1.45 1.64 1.69 1.68 1.67 1.64 1.61 1.62 1.60 1.50
0.83 0.83 0.84 0.84 0.83 0.81 0.79 0.77 0.76 0.74 0.72 0.71 0.70 0.69 0.67 0.64 0.59 0.56 0.54 0.52 0.51 0.51 0.51 0.50 0.48 0.45 0.43 0.42 0.46 0.44 0.31 0.25 0.59 0.75 0.84 0.79 0.80 0.88 0.89 0.93 0.94 0.91 0.87 0.83 0.80 0.78 0.82 0.83 0.84 0.72 0.68 0.80 0.81 0.87 0.96 1.03 1.09 0.87 1.00 1.07 1.14 1.14 1.04 1.22 1.23 1.26 1.30 1.24 1.23 1.24 1.39 1.49 1.45 1.42 1.56 1.54 1.43 1.49 1.70 1.76 1.76 1.74 1.74 1.74 1.72 1.62 1.54 1.51
0.85 0.86 0.86 0.85 0.84 0.82 0.79 0.78 0.76 0.74 0.73 0.71 0.70 0.68 0.65 0.62 0.59 0.57 0.54 0.52 0.51 0.51 0.52 0.52 0.49 0.46 0.41 0.44 0.46 0.35 0.25 0.33 0.50 0.68 0.73 0.81 0.77 0.76 0.85 0.86 0.85 0.84 0.90 0.82 0.78 0.77 0.78 0.77 0.77 0.64 0.60 0.70 0.81 0.95 0.97 1.01 1.08 0.96 0.90 1.07 1.06 1.16 1.08 1.23 1.23 1.31 1.29 1.24 1.18 1.35 1.47 1.34 1.40 1.26 1.56 1.48 1.58 1.62 1.71 1.80 1.78 1.79 1.77 1.74 1.61 1.60 1.54 1.52
0.89 0.89 0.88 0.87 0.85 0.83 0.80 0.78 0.76 0.74 0.73 0.72 0.70 0.67 0.64 0.60 0.58 0.57 0.55 0.51 0.51 0.51 0.54 0.53 0.50 0.45 0.43 0.39 0.23 0.21 0.24 0.24 0.54 0.74 0.72 0.82 0.79 0.78 0.75 0.77 0.78 0.81 0.79 0.78 0.74 0.75 0.75 0.70 0.68 0.66 0.64 0.64 0.70 0.72 0.98 1.06 1.04 0.95 0.94 1.09 1.07 1.14 1.16 1.24 1.28 1.32 1.32 1.32 1.37 1.35 1.27 1.29 1.37 1.33 1.50 1.44 1.61 1.65 1.70 1.76 1.75 1.75 1.71 1.67 1.62 1.57 1.55 1.53
0.92 0.92 0.90 0.89 0.86 0.83 0.80 0.78 0.76 0.74 0.73 0.72 0.70 0.67 0.63 0.59 0.56 0.55 0.54 0.52 0.50 0.52 0.53 0.54 0.48 0.45 0.46 0.34 0.23 0.14 0.25 0.54 0.61 0.76 0.82 0.79 0.75 0.72 0.72 0.64 0.78 0.72 0.73 0.77 0.78 0.76 0.75 0.70 0.68 0.65 0.58 0.64 0.72 0.69 0.81 1.00 0.89 1.03 1.00 1.10 1.08 1.08 1.16 1.23 1.26 1.30 1.33 1.37 1.40 1.24 1.20 1.34 1.44 1.54 1.38 1.49 1.62 1.66 1.70 1.68 1.66 1.64 1.59 1.56 1.56 1.57 1.53 1.49
0.93 0.93 0.92 0.90 0.88 0.85 0.81 0.78 0.76 0.73 0.72 0.71 0.69 0.66 0.62 0.58 0.55 0.54 0.52 0.50 0.49 0.51 0.53 0.52 0.50 0.44 0.35 0.29 0.25 0.10 0.34 0.60 0.67 0.70 0.75 0.74 0.72 0.64 0.64 0.69 0.71 0.72 0.71 0.73 0.73 0.76 0.73 0.69 0.69 0.68 0.68 0.68 0.71 0.68 0.82 0.87 0.83 1.11 1.08 1.09 1.06 1.07 1.13 1.22 1.19 1.27 1.33 1.33 1.36 1.17 1.14 1.21 1.38 1.37 1.12 1.51 1.60 1.61 1.58 1.50 1.60 1.53 1.49 1.51 1.49 1.53 1.53 1.48
0.94 0.93 0.92 0.91 0.89 0.86 0.82 0.79 0.76 0.73 0.72 0.70 0.68 0.65 0.62 0.57 0.54 0.54 0.50 0.48 0.49 0.51 0.52 0.52 0.49 0.42 0.28 0.28 0.15 0.12 0.47 0.64 0.62 0.69 0.76 0.77 0.69 0.61 0.56 0.65 0.72 0.71 0.73 0.74 0.75 0.78 0.74 0.73 0.72 0.70 0.68 0.62 0.68 0.72 0.85 0.87 1.05 1.07 1.10 1.11 1.10 1.12 1.14 1.18 1.21 1.23 1.29 1.19 1.35 1.25 1.13 1.22 1.28 1.28 1.06 1.26 1.44 1.41 1.36 1.39 1.46 1.43 1.41 1.42 1.46 1.48 1.52 1.51
0.94 0.93 0.92 0.91 0.89 0.87 0.83 0.80 0.77 0.74 0.72 0.70 0.67 0.64 0.61 0.56 0.53 0.54 0.48 0.46 0.49 0.51 0.50 0.49 0.46 0.45 0.36 0.23 0.15 0.14 0.41 0.55 0.61 0.63 0.71 0.75 0.67 0.64 0.57 0.62 0.72 0.74 0.74 0.70 0.75 0.77 0.77 0.73 0.71 0.68 0.59 0.72 0.62 0.74 0.78 1.08 1.07 1.05 1.07 0.88 1.01 1.08 1.01 1.11 1.07 1.17 1.21 1.08 1.29 1.28 1.12 1.07 1.15 1.08 1.19 1.29 1.35 1.30 1.27 1.28 1.34 1.37 1.41 1.45 1.48 1.50 1.50 1.49
0.94 0.93 0.93 0.91 0.90 0.88 0.84 0.81 0.78 0.76 0.73 0.70 0.67 0.63 0.60 0.55 0.51 0.53 0.49 0.45 0.48 0.49 0.48 0.45 0.44 0.45 0.34 0.16 0.16 0.24 0.33 0.33 0.55 0.64 0.62 0.68 0.69 0.71 0.69 0.63 0.70 0.76 0.78 0.75 0.74 0.78 0.77 0.74 0.70 0.65 0.67 0.65 0.62 0.58 0.67 0.70 1.02 1.07 1.03 0.86 0.92 0.93 0.88 1.06 1.14 1.15 1.12 1.08 1.24 1.16 0.68 0.84 1.05 1.21 1.26 1.30 1.30 1.33 1.31 1.32 1.35 1.40 1.45 1.45 1.43 1.38 1.41 1.47
0.93 0.93 0.93 0.92 0.90 0.88 0.85 0.82 0.79 0.77 0.74 0.71 0.68 0.63 0.59 0.53 0.50 0.52 0.49 0.45 0.49 0.48 0.46 0.46 0.45 0.37 0.27 0.16 0.23 0.31 0.36 0.41 0.42 0.53 0.52 0.59 0.61 0.66 0.70 0.71 0.72 0.77 0.82 0.79 0.79 0.81 0.80 0.78 0.72 0.68 0.72 0.66 0.62 0.73 0.67 0.75 0.97 0.89 0.93 0.92 0.74 0.76 0.73 1.02 1.09 1.10 1.01 1.16 1.23 1.16 0.66 0.77 0.98 1.19 1.31 1.31 1.32 1.29 1.28 1.35 1.41 1.45 1.48 1.55 1.44 1.38 1.37 1.44
0.93 0.93 0.92 0.92 0.91 0.88 0.85 0.82 0.79 0.77 0.74 0.72 0.68 0.63 0.57 0.50 0.49 0.51 0.51 0.45 0.50 0.49 0.47 0.47 0.43 0.36 0.27 0.20 0.35 0.39 0.41 0.46 0.32 0.37 0.47 0.51 0.54 0.57 0.62 0.67 0.67 0.72 0.78 0.79 0.77 0.78 0.75 0.71 0.67 0.61 0.59 0.69 0.68 0.63 0.60 0.61 0.83 0.91 0.76 0.67 0.76 0.70 0.77 0.93 1.13 1.09 0.92 1.09 1.22 1.06 0.70 0.73 0.91 1.09 1.24 1.26 1.28 1.30 1.22 1.29 1.35 1.39 1.44 1.47 1.54 1.52 1.50 1.47
0.93 0.92 0.92 0.91 0.90 0.88 0.85 0.81 0.79 0.77 0.74 0.72 0.67 0.63 0.62 0.58 0.54 0.53 0.52 0.49 0.48 0.52 0.48 0.49 0.48 0.39 0.25 0.15 0.25 0.45 0.35 0.27 0.25 0.31 0.38 0.39 0.47 0.48 0.59 0.63 0.66 0.68 0.73 0.71 0.73 0.70 0.68 0.65 0.60 0.60 0.62 0.65 0.61 0.58 0.58 0.60 0.60 0.74 0.65 0.63 0.66 0.71 0.74 0.82 0.97 1.08 1.07 1.02 1.09 1.00 0.70 0.83 0.86 1.07 1.18 1.23 1.25 1.23 1.18 1.23 1.29 1.34 1.42 1.46 1.52 1.49 1.51 1.52
0.93 0.92 0.91 0.90 0.88 0.87 0.84 0.81 0.79 0.76 0.75 0.72 0.67 0.65 0.63 0.62 0.64 0.66 0.56 0.57 0.52 0.51 0.45 0.37 0.49 0.48 0.13 0.36 0.43 0.26 0.27 0.29 0.34 0.32 0.30 0.31 0.37 0.48 0.54 0.59 0.59 0.62 0.66 0.69 0.67 0.64 0.62 0.58 0.60 0.60 0.62 0.57 0.60 0.59 0.52 0.50 0.55 0.56 0.64 0.61 0.67 0.65 0.75 0.68 0.89 1.03 1.06 1.00 0.86 1.00 0.83 0.81 0.90 1.04 1.13 1.18 1.21 1.17 1.16 1.21 1.27 1.33 1.41 1.48 1.52 1.50 1.48 1.57
0.94 0.92 0.91 0.89 0.86 0.85 0.83 0.81 0.79 0.76 0.74 0.70 0.66 0.62 0.62 0.64 0.72 0.77 0.67 0.69 0.62 0.57 0.50 0.52 0.49 0.35 0.19 0.32 0.26 0.26 0.32 0.33 0.34 0.33 0.25 0.26 0.36 0.43 0.47 0.51 0.57 0.60 0.59 0.57 0.60 0.55 0.58 0.51 0.55 0.49 0.55 0.55 0.58 0.55 0.47 0.41 0.47 0.49 0.55 0.58 0.65 0.71 0.73 0.68 0.70 0.85 1.02 0.96 0.84 0.87 0.85 0.84 0.92 1.02 1.09 1.14 1.21 1.18 1.16 1.20 1.26 1.31 1.36 1.45 1.48 1.46 1.46 1.54
0.95 0.93 0.90 0.88 0.85 0.83 0.82 0.81 0.78 0.76 0.72 0.67 0.65 0.72 0.74 0.71 0.83 0.77 0.61 0.59 0.45 0.34 0.20 0.23 0.25 0.14 0.14 0.19 0.36 0.36 0.35 0.36 0.37 0.28 0.21 0.23 0.34 0.41 0.42 0.47 0.55 0.56 0.52 0.50 0.51 0.51 0.51 0.48 0.51 0.47 0.46 0.50 0.51 0.54 0.50 0.51 0.53 0.49 0.53 0.56 0.63 0.62 0.66 0.67 0.76 0.91 0.95 0.84 0.78 0.80 0.75 0.84 0.92 0.98 1.06 1.13 1.19 1.17 1.18 1.24 1.26 1.28 1.32 1.39 1.43 1.44 1.45 1.51
0.94 0.93 0.90 0.87 0.84 0.82 0.81 0.81 0.78 0.76 0.73 0.64 0.60 0.60 0.62 0.39 0.45 0.45 0.54 0.51 0.39 0.32 0.30 0.38 0.33 0.34 0.33 0.34 0.33 0.37 0.37 0.36 0.30 0.26 0.26 0.33 0.35 0.35 0.34 0.38 0.46 0.51 0.49 0.45 0.49 0.47 0.48 0.42 0.41 0.42 0.44 0.48 0.51 0.53 0.55 0.56 0.51 0.51 0.57 0.59 0.59 0.61 0.66 0.74 0.79 0.89 0.97 0.85 0.78 0.82 0.83 0.88 0.93 0.98 1.04 1.11 1.19 1.19 1.18 1.17 1.19 1.24 1.26 1.29 1.38 1.39 1.41 1.45
0.94 0.92 0.89 0.86 0.83 0.81 0.80 0.80 0.78 0.77 0.74 0.68 0.61 0.49 0.34 0.34 0.26 0.25 0.33 0.33 0.38 0.38 0.36 0.40 0.36 0.37 0.34 0.37 0.41 0.40 0.31 0.28 0.31 0.31 0.34 0.42 0.37 0.31 0.29 0.30 0.32 0.33 0.40 0.47 0.48 0.47 0.44 0.38 0.40 0.43 0.48 0.54 0.53 0.53 0.54 0.52 0.51 0.52 0.54 0.56 0.56 0.63 0.58 0.70 0.73 0.86 0.89 0.80 0.77 0.86 0.83 0.86 0.93 1.00 1.06 1.13 1.14 1.10 1.11 1.12 1.14 1.16 1.20 1.24 1.29 1.32 1.34 1.38
0.92 0.90 0.88 0.85 0.82 0.80 0.80 0.80 0.78 0.78 0.76 0.69 0.59 0.46 0.47 0.45 0.44 0.46 0.38 0.24 0.30 0.32 0.34 0.38 0.39 0.38 0.43 0.45 0.47 0.48 0.37 0.29 0.27 0.30 0.37 0.36 0.34 0.22 0.25 0.22 0.25 0.24 0.32 0.40 0.42 0.38 0.34 0.35 0.40 0.46 0.52 0.53 0.52 0.51 0.52 0.53 0.47 0.56 0.55 0.55 0.54 0.58 0.66 0.72 0.76 0.83 0.85 0.81 0.74 0.82 0.77 0.83 0.92 0.96 1.05 1.09 1.09 1.12 1.16 1.12 1.12 1.14 1.14 1.18 1.23 1.28 1.30 1.31
0.89 0.87 0.86 0.84 0.82 0.80 0.79 0.81 0.80 0.79 0.73 0.63 0.52 0.50 0.46 0.52 0.54 0.52 0.42 0.30 0.24 0.30 0.28 0.29 0.27 0.32 0.34 0.43 0.47 0.46 0.33 0.26 0.25 0.27 0.30 0.30 0.30 0.23 0.26 0.18 0.20 0.22 0.26 0.33 0.31 0.31 0.28 0.33 0.42 0.52 0.53 0.52 0.51 0.51 0.52 0.51 0.50 0.51 0.52 0.50 0.48 0.56 0.59 0.55 0.73 0.78 0.80 0.78 0.75 0.80 0.77 0.81 0.94 1.01 1.04 1.14 1.14 1.13 1.16 1.15 1.16 1.21 1.14 1.15 1.20 1.22 1.20 1.23
0.85 0.84 0.85 0.84 0.83 0.80 0.80 0.79 0.85 0.76 0.67 0.64 0.56 0.50 0.53 0.55 0.55 0.49 0.34 0.23 0.20 0.23 0.25 0.27 0.28 0.31 0.32 0.32 0.41 0.37 0.29 0.31 0.27 0.27 0.32 0.28 0.24 0.27 0.23 0.21 0.19 0.19 0.19 0.25 0.28 0.28 0.27 0.36 0.47 0.50 0.49 0.47 0.45 0.47 0.47 0.46 0.43 0.52 0.49 0.48 0.49 0.54 0.57 0.54 0.59 0.74 0.78 0.83 0.88 0.82 0.77 0.77 0.87 0.86 0.94 1.07 1.18 1.14 1.14 1.18 1.17 1.20 1.22 1.26 1.30 1.29 1.29 1.25
0.83 0.82 0.83 0.85 0.83 0.83 0.78 0.81 0.75 0.66 0.72 0.63 0.56 0.60 0.57 0.53 0.53 0.48 0.34 0.27 0.25 0.28 0.37 0.30 0.30 0.30 0.36 0.47 0.44 0.32 0.33 0.31 0.29 0.31 0.32 0.27 0.27 0.24 0.21 0.25 0.22 0.18 0.19 0.24 0.25 0.25 0.32 0.41 0.47 0.46 0.44 0.44 0.44 0.43 0.47 0.47 0.41 0.45 0.52 0.49 0.46 0.55 0.53 0.59 0.65 0.64 0.65 0.65 0.80 0.75 0.56 0.61 0.81 0.87 0.89 0.99 1.03 1.01 1.12 1.08 1.06 1.09 1.16 1.22 1.24 1.25 1.31 1.31
0.81 0.81 0.82 0.85 0.85 0.82 0.81 0.67 0.61 0.70 0.66 0.54 0.54 0.62 0.62 0.57 0.52 0.49 0.37 0.24 0.15 0.23 0.32 0.21 0.32 0.24 0.39 0.33 0.37 0.31 0.32 0.23 0.29 0.31 0.31 0.27 0.31 0.25 0.24 0.22 0.22 0.17 0.21 0.22 0.22 0.27 0.34 0.42 0.44 0.42 0.42 0.44 0.44 0.46 0.47 0.47 0.40 0.38 0.37 0.47 0.50 0.54 0.51 0.54 0.60 0.57 0.50 0.48 0.67 0.80 0.51 0.50 0.75 0.78 0.86 0.93 0.95 0.94 1.04 1.02 1.01 1.08 1.14 1.18 1.21 1.26 1.28 1.30
0.80 0.80 0.82 0.85 0.86 0.87 0.64 0.53 0.74 0.69 0.52 0.53 0.60 0.60 0.62 0.56 0.51 0.48 0.34 0.26 0.21 0.26 0.24 0.32 0.24 0.33 0.30 0.32 0.30 0.27 0.14 0.17 0.24 0.29 0.27 0.29 0.27 0.32 0.23 0.22 0.20 0.23 0.25 0.29 0.24 0.23 0.37 0.39 0.40 0.40 0.40 0.41 0.45 0.42 0.46 0.46 0.39 0.33 0.39 0.44 0.54 0.53 0.48 0.51 0.54 0.52 0.51 0.61 0.70 0.74 0.64 0.51 0.55 0.71 0.89 0.96 0.92 0.90 0.93 0.95 0.98 1.07 1.14 1.15 1.18 1.24 1.26 1.28
0.79 0.79 0.80 0.85 0.86 0.87 0.72 0.75 0.69 0.56 0.53 0.58 0.62 0.59 0.55 0.53 0.53 0.55 0.38 0.21 0.18 0.31 0.22 0.26 0.27 0.34 0.30 0.31 0.29 0.20 0.23 0.23 0.17 0.22 0.29 0.31 0.31 0.28 0.25 0.21 0.20 0.22 0.24 0.25 0.15 0.28 0.37 0.37 0.37 0.34 0.38 0.41 0.43 0.46 0.49 0.50 0.43 0.36 0.40 0.41 0.40 0.45 0.45 0.54 0.55 0.52 0.53 0.56 0.51 0.61 0.66 0.53 0.54 0.69 0.90 0.94 0.78 0.82 0.82 0.86 0.92 1.02 1.12 1.16 1.17 1.20 1.23 1.26
0.79 0.78 0.80 0.84 0.87 0.87 0.87 0.76 0.68 0.57 0.60 0.65 0.63 0.55 0.56 0.59 0.56 0.41 0.35 0.23 0.38 0.34 0.38 0.24 0.33 0.28 0.27 0.29 0.24 0.23 0.23 0.25 0.19 0.25 0.31 0.33 0.34 0.29 0.21 0.22 0.24 0.24 0.25 0.24 0.19 0.30 0.37 0.37 0.36 0.35 0.36 0.38 0.44 0.46 0.50 0.51 0.41 0.44 0.42 0.41 0.39 0.38 0.37 0.45 0.52 0.49 0.53 0.50 0.41 0.52 0.57 0.46 0.50 0.67 0.75 0.87 0.79 0.71 0.75 0.83 0.89 0.98 1.07 1.13 1.16 1.20 1.24 1.28
0.79 0.77 0.79 0.85 0.84 0.83 0.79 0.80 0.69 0.70 0.70 0.66 0.59 0.57 0.60 0.53 0.43 0.35 0.26 0.21 0.40 0.29 0.35 0.29 0.23 0.22 0.25 0.22 0.21 0.24 0.22 0.25 0.27 0.29 0.31 0.31 0.33 0.30 0.28 0.30 0.25 0.23 0.22 0.23 0.24 0.33 0.35 0.36 0.37 0.35 0.36 0.43 0.46 0.50 0.51 0.48 0.43 0.44 0.41 0.37 0.37 0.38 0.37 0.39 0.50 0.51 0.48 0.39 0.43 0.51 0.54 0.52 0.43 0.56 0.67 0.69 0.68 0.71 0.75 0.82 0.90 0.99 1.05 1.11 1.16 1.20 1.23 1.24
0.78 0.76 0.77 0.87 0.73 0.78 0.76 0.60 0.66 0.73 0.69 0.64 0.61 0.58 0.57 0.47 0.37 0.30 0.22 0.30 0.41 0.35 0.39 0.31 0.26 0.28 0.22 0.18 0.18 0.24 0.24 0.24 0.26 0.29 0.28 0.33 0.31 0.28 0.26 0.23 0.25 0.21 0.21 0.20 0.22 0.31 0.33 0.32 0.31 0.35 0.44 0.47 0.49 0.47 0.50 0.48 0.45 0.41 0.38 0.35 0.32 0.33 0.38 0.37 0.45 0.45 0.36 0.36 0.45 0.54 0.55 0.56 0.38 0.48 0.63 0.76 0.83 0.78 0.75 0.73 0.80 0.91 0.98 1.01 1.08 1.14 1.18 1.22
0.76 0.75 0.79 0.81 0.84 0.88 0.63 0.54 0.65 0.72 0.68 0.63 0.57 0.52 0.50 0.39 0.43 0.31 0.29 0.44 0.29 0.32 0.32 0.29 0.29 0.25 0.22 0.21 0.20 0.21 0.20 0.22 0.27 0.28 0.28 0.28 0.26 0.19 0.20 0.18 0.18 0.15 0.14 0.15 0.18 0.25 0.26 0.29 0.30 0.35 0.40 0.46 0.46 0.42 0.43 0.46 0.41 0.34 0.35 0.35 0.31 0.28 0.32 0.31 0.35 0.33 0.35 0.34 0.48 0.57 0.56 0.48 0.45 0.55 0.66 0.75 0.77 0.79 0.84 0.83 0.84 0.90 0.95 0.99 1.04 1.08 1.15 1.21
0.76 0.76 0.78 0.82 0.85 0.76 0.74 0.72 0.74 0.72 0.66 0.60 0.59 0.59 0.52 0.41 0.29 0.39 0.42 0.45 0.30 0.34 0.31 0.32 0.23 0.22 0.21 0.19 0.19 0.22 0.23 0.21 0.27 0.28 0.28 0.29 0.25 0.21 0.21 0.20 0.21 0.18 0.14 0.16 0.19 0.21 0.24 0.29 0.30 0.31 0.37 0.47 0.45 0.37 0.37 0.34 0.36 0.35 0.31 0.30 0.28 0.25 0.26 0.27 0.29 0.34 0.37 0.46 0.56 0.57 0.55 0.46 0.54 0.62 0.73 0.73 0.79 0.84 0.88 0.91 0.94 0.93 0.94 0.98 1.04 1.09 1.13 1.21
0.76 0.76 0.73 0.78 0.80 0.78 0.77 0.79 0.77 0.72 0.57 0.62 0.56 0.54 0.50 0.38 0.32 0.49 0.40 0.41 0.36 0.34 0.31 0.25 0.22 0.23 0.20 0.16 0.20 0.20 0.17 0.23 0.25 0.26 0.26 0.26 0.22 0.19 0.18 0.19 0.21 0.19 0.18 0.18 0.17 0.20 0.21 0.23 0.28 0.29 0.33 0.44 0.43 0.42 0.39 0.37 0.36 0.35 0.35 0.30 0.28 0.26 0.25 0.26 0.29 0.29 0.33 0.40 0.51 0.58 0.49 0.41 0.46 0.51 0.79 0.80 0.84 0.88 0.92 0.95 1.00 1.01 1.01 1.04 1.09 1.12 1.15 1.19
0.74 0.73 0.78 0.76 0.79 0.82 0.81 0.78 0.78 0.68 0.60 0.60 0.53 0.48 0.37 0.34 0.39 0.36 0.38 0.39 0.35 0.29 0.25 0.25 0.21 0.20 0.19 0.19 0.20 0.21 0.22 0.21 0.27 0.26 0.25 0.22 0.20 0.18 0.18 0.16 0.18 0.19 0.20 0.16 0.19 0.22 0.22 0.24 0.29 0.32 0.32 0.39 0.40 0.44 0.42 0.39 0.36 0.36 0.35 0.33 0.28 0.27 0.31 0.26 0.28 0.32 0.37 0.39 0.42 0.45 0.44 0.54 0.56 0.71 0.82 0.87 0.84 0.85 0.91 0.93 0.98 0.99 1.01 1.06 1.08 1.12 1.14 1.17
0.70 0.65 0.77 0.72 0.77 0.81 0.81 0.77 0.76 0.68 0.63 0.55 0.44 0.40 0.37 0.40 0.35 0.45 0.43 0.49 0.39 0.27 0.25 0.26 0.22 0.20 0.20 0.21 0.23 0.23 0.25 0.25 0.27 0.26 0.25 0.24 0.23 0.19 0.20 0.18 0.17 0.17 0.17 0.15 0.19 0.18 0.21 0.19 0.21 0.23 0.26 0.30 0.35 0.41 0.39 0.41 0.29 0.32 0.33 0.28 0.29 0.33 0.31 0.32 0.36 0.42 0.45 0.42 0.39 0.51 0.49 0.59 0.67 0.71 0.77 0.79 0.77 0.80 0.86 0.90 0.93 0.93 0.98 1.01 1.04 1.10 1.15 1.20
0.61 0.70 0.65 0.79 0.79 0.81 0.83 0.84 0.75 0.68 0.64 0.54 0.42 0.37 0.45 0.46 0.51 0.49 0.51 0.43 0.39 0.32 0.27 0.21 0.20 0.22 0.20 0.20 0.23 0.23 0.24 0.26 0.28 0.25 0.22 0.26 0.22 0.22 0.20 0.19 0.19 0.18 0.18 0.21 0.19 0.22 0.15 0.17 0.20 0.21 0.22 0.26 0.31 0.35 0.39 0.41 0.41 0.34 0.28 0.30 0.33 0.32 0.31 0.32 0.31 0.38 0.39 0.34 0.39 0.48 0.42 0.46 0.49 0.43 0.71 0.70 0.70 0.77 0.79 0.82 0.88 0.89 0.94 0.97 1.03 1.08 1.13 1.19
0.64 0.71 0.77 0.72 0.76 0.86 0.90 0.88 0.74 0.63 0.57 0.48 0.41 0.43 0.53 0.47 0.56 0.54 0.53 0.47 0.45 0.38 0.32 0.24 0.24 0.28 0.22 0.23 0.23 0.24 0.25 0.20 0.24 0.24 0.23 0.25 0.20 0.26 0.22 0.19 0.20 0.17 0.19 0.25 0.22 0.21 0.21 0.17 0.21 0.23 0.23 0.27 0.32 0.34 0.36 0.39 0.40 0.36 0.33 0.38 0.29 0.25 0.24 0.29 0.35 0.28 0.31 0.31 0.34 0.43 0.47 0.46 0.50 0.46 0.58 0.62 0.65 0.71 0.74 0.79 0.82 0.84 0.90 0.94 1.00 1.07 1.16 1.23
0.72 0.71 0.63 0.76 0.91 0.95 0.93 0.89 0.72 0.57 0.50 0.41 0.42 0.40 0.50 0.54 0.58 0.56 0.55 0.49 0.48 0.39 0.34 0.32 0.28 0.27 0.27 0.24 0.25 0.26 0.27 0.21 0.23 0.23 0.20 0.23 0.18 0.24 0.23 0.22 0.19 0.19 0.20 0.23 0.22 0.23 0.22 0.19 0.18 0.23 0.23 0.27 0.31 0.30 0.26 0.30 0.36 0.41 0.39 0.34 0.37 0.30 0.26 0.24 0.28 0.34 0.31 0.31 0.31 0.35 0.40 0.36 0.53 0.52 0.53 0.60 0.68 0.73 0.73 0.76 0.78 0.85 0.91 0.95 1.00 1.08 1.16 1.23
0.66 0.62 0.60 0.85 0.95 0.96 0.96 0.84 0.64 0.57 0.46 0.35 0.39 0.42 0.50 0.47 0.53 0.55 0.54 0.48 0.41 0.36 0.35 0.32 0.33 0.30 0.28 0.28 0.27 0.26 0.28 0.26 0.24 0.23 0.19 0.24 0.21 0.25 0.23 0.24 0.21 0.19 0.21 0.22 0.23 0.24 0.22 0.23 0.18 0.23 0.28 0.28 0.25 0.26 0.25 0.31 0.30 0.32 0.32 0.30 0.32 0.30 0.32 0.28 0.30 0.28 0.26 0.26 0.29 0.30 0.33 0.40 0.51 0.61 0.58 0.64 0.69 0.71 0.73 0.74 0.80 0.86 0.91 0.97 1.05 1.12 1.17 1.23
0.77 0.63 0.65 0.93 0.96 0.97 0.90 0.71 0.52 0.45 0.42 0.45 0.49 0.47 0.49 0.46 0.52 0.50 0.52 0.49 0.43 0.40 0.36 0.34 0.33 0.31 0.30 0.29 0.27 0.29 0.28 0.27 0.26 0.22 0.21 0.22 0.23 0.19 0.24 0.23 0.23 0.21 0.22 0.24 0.23 0.23 0.22 0.23 0.21 0.24 0.25 0.23 0.28 0.30 0.31 0.34 0.33 0.32 0.31 0.28 0.27 0.24 0.24 0.21 0.20 0.31 0.34 0.29 0.30 0.30 0.34 0.41 0.54 0.64 0.60 0.64 0.71 0.72 0.76 0.79 0.82 0.88 0.96 1.03 1.09 1.11 1.08 1.03
0.59 0.50 0.65 0.95 0.96 0.90 0.73 0.47 0.46 0.52 0.47 0.43 0.44 0.48 0.48 0.57 0.52 0.51 0.49 0.48 0.41 0.36 0.40 0.37 0.37 0.37 0.36 0.35 0.36 0.29 0.29 0.27 0.26 0.22 0.23 0.22 0.25 0.23 0.25 0.25 0.25 0.24 0.21 0.20 0.22 0.25 0.25 0.25 0.23 0.23 0.26 0.27 0.30 0.34 0.34 0.34 0.34 0.33 0.31 0.29 0.29 0.27 0.27 0.25 0.19 0.28 0.33 0.36 0.40 0.40 0.34 0.41 0.59 0.65 0.67 0.69 0.72 0.76 0.82 0.86 0.86 0.96 1.03 1.06 1.02 0.95 1.00 1.07
0.53 0.59 0.80 0.87 0.88 0.80 0.63 0.45 0.47 0.46 0.44 0.47 0.56 0.54 0.57 0.51 0.50 0.51 0.49 0.46 0.40 0.37 0.37 0.38 0.43 0.39 0.42 0.40 0.37 0.35 0.31 0.27 0.25 0.22 0.23 0.22 0.23 0.26 0.27 0.27 0.27 0.25 0.24 0.23 0.25 0.26 0.29 0.24 0.23 0.27 0.32 0.34 0.33 0.35 0.33 0.33 0.32 0.29 0.29 0.28 0.28 0.28 0.29 0.25 0.23 0.32 0.31 0.38 0.35 0.38 0.35 0.42 0.60 0.70 0.74 0.76 0.78 0.81 0.85 0.91 0.96 1.02 1.00 0.98 0.95 0.96 0.98 0.99
0.56 0.60 0.70 0.88 0.94 0.76 0.55 0.36 0.33 0.40 0.45 0.52 0.52 0.52 0.57 0.53 0.52 0.48 0.48 0.44 0.44 0.43 0.43 0.44 0.46 0.51 0.45 0.49 0.42 0.35 0.34 0.25 0.25 0.23 0.21 0.22 0.22 0.28 0.29 0.29 0.28 0.26 0.24 0.26 0.24 0.28 0.24 0.28 0.25 0.25 0.26 0.28 0.29 0.30 0.29 0.31 0.29 0.28 0.28 0.29 0.30 0.30 0.30 0.31 0.32 0.37 0.29 0.36 0.36 0.32 0.29 0.39 0.59 0.74 0.76 0.79 0.81 0.79 0.85 0.95 1.01 0.93 0.93 0.94 0.94 0.95 0.99 1.01
0.59 0.67 0.68 0.82 0.91 0.74 0.53 0.50 0.43 0.44 0.51 0.49 0.49 0.50 0.50 0.52 0.58 0.57 0.45 0.49 0.52 0.49 0.45 0.46 0.49 0.50 0.46 0.47 0.42 0.39 0.35 0.33 0.26 0.24 0.23 0.23 0.25 0.27 0.31 0.31 0.30 0.27 0.28 0.30 0.30 0.33 0.27 0.32 0.31 0.26 0.24 0.22 0.20 0.19 0.21 0.22 0.23 0.26 0.33 0.37 0.35 0.30 0.33 0.31 0.29 0.31 0.27 0.38 0.39 0.32 0.36 0.51 0.64 0.72 0.74 0.78 0.79 0.81 0.93 0.97 0.94 0.92 0.90 0.93 0.93 0.97 1.02 1.07
0.53 0.45 0.63 0.74 0.76 0.72 0.65 0.66 0.60 0.56 0.52 0.51 0.48 0.51 0.55 0.51 0.58 0.63 0.58 0.60 0.58 0.53 0.49 0.49 0.51 0.49 0.46 0.43 0.40 0.39 0.34 0.39 0.38 0.30 0.24 0.26 0.25 0.25 0.28 0.30 0.28 0.26 0.31 0.34 0.36 0.35 0.31 0.33 0.33 0.32 0.30 0.28 0.29 0.28 0.28 0.28 0.24 0.33 0.36 0.33 0.32 0.30 0.30 0.34 0.32 0.30 0.28 0.38 0.39 0.41 0.41 0.48 0.56 0.64 0.69 0.73 0.75 0.79 0.86 0.88 0.85 0.88 0.93 0.96 0.99 1.04 1.08 1.07
0.67 0.54 0.65 0.60 0.73 0.67 0.62 0.63 0.61 0.61 0.55 0.60 0.50 0.56 0.54 0.57 0.59 0.56 0.60 0.54 0.56 0.56 0.52 0.49 0.48 0.41 0.47 0.45 0.43 0.40 0.43 0.37 0.37 0.34 0.30 0.27 0.27 0.29 0.30 0.30 0.30 0.29 0.31 0.31 0.35 0.35 0.30 0.27 0.29 0.31 0.31 0.33 0.35 0.32 0.33 0.30 0.33 0.33 0.33 0.34 0.33 0.29 0.31 0.32 0.29 0.28 0.40 0.37 0.36 0.47 0.49 0.45 0.51 0.62 0.68 0.71 0.78 0.81 0.82 0.83 0.87 0.90 0.92 0.96 1.01 1.04 1.05 1.05
0.46 0.69 0.82 0.93 0.70 0.56 0.54 0.54 0.64 0.62 0.63 0.63 0.57 0.62 0.58 0.59 0.57 0.52 0.56 0.60 0.60 0.61 0.49 0.53 0.52 0.52 0.52 0.49 0.47 0.41 0.41 0.40 0.38 0.39 0.45 0.31 0.27 0.28 0.27 0.28 0.27 0.30 0.32 0.30 0.33 0.32 0.30 0.27 0.29 0.30 0.31 0.35 0.37 0.37 0.40 0.41 0.43 0.41 0.40 0.36 0.32 0.31 0.29 0.30 0.35 0.38 0.41 0.32 0.33 0.47 0.51 0.47 0.55 0.64 0.70 0.75 0.79 0.80 0.83 0.87 0.92 0.93 0.97 0.99 1.00 1.00 0.99 1.00
0.66 0.71 0.80 0.99 0.70 0.73 0.67 0.69 0.70 0.67 0.62 0.63 0.61 0.61 0.57 0.58 0.59 0.63 0.61 0.58 0.54 0.58 0.56 0.48 0.49 0.52 0.55 0.55 0.50 0.45 0.44 0.36 0.34 0.41 0.44 0.38 0.27 0.27 0.25 0.26 0.28 0.27 0.29 0.29 0.28 0.32 0.29 0.28 0.31 0.33 0.33 0.36 0.44 0.50 0.42 0.40 0.42 0.42 0.41 0.39 0.38 0.36 0.34 0.34 0.38 0.44 0.43 0.42 0.47 0.51 0.53 0.55 0.64 0.70 0.77 0.82 0.87 0.89 0.92 0.95 0.95 0.94 0.94 0.96 0.95 0.95 0.97 1.00
0.58 0.55 0.60 0.85 0.85 0.79 0.74 0.70 0.67 0.65 0.59 0.64 0.55 0.61 0.62 0.60 0.58 0.66 0.69 0.64 0.53 0.54 0.64 0.58 0.56 0.56 0.57 0.56 0.54 0.46 0.47 0.48 0.47 0.42 0.45 0.44 0.32 0.30 0.28 0.27 0.26 0.25 0.27 0.28 0.26 0.30 0.26 0.27 0.33 0.33 0.32 0.33 0.52 0.54 0.46 0.40 0.39 0.39 0.43 0.45 0.43 0.42 0.46 0.49 0.49 0.51 0.51 0.52 0.55 0.54 0.53 0.57 0.78 0.87 0.86 0.95 0.97 1.00 1.00 0.94 0.96 0.97 0.97 0.98 0.95 0.93 0.96 0.97
0.78 0.82 0.85 0.71 0.66 0.72 0.76 0.70 0.63 0.61 0.59 0.63 0.60 0.66 0.62 0.64 0.61 0.64 0.62 0.73 0.66 0.61 0.61 0.58 0.60 0.59 0.60 0.56 0.55 0.52 0.54 0.54 0.52 0.53 0.51 0.49 0.42 0.42 0.34 0.29 0.29 0.25 0.23 0.27 0.25 0.28 0.25 0.27 0.32 0.34 0.31 0.34 0.45 0.55 0.47 0.47 0.47 0.43 0.44 0.44 0.45 0.43 0.41 0.48 0.47 0.55 0.47 0.49 0.55 0.54 0.51 0.59 0.82 0.93 0.92 0.95 0.96 0.98 0.98 1.01 1.02 1.00 1.02 1.03 0.94 0.94 0.96 1.05
0.80 0.92 0.92 0.79 0.62 0.76 0.68 0.72 0.69 0.63 0.55 0.65 0.68 0.70 0.66 0.65 0.67 0.65 0.58 0.72 0.75 0.74 0.71 0.65 0.65 0.62 0.58 0.53 0.53 0.57 0.59 0.58 0.58 0.59 0.55 0.53 0.49 0.46 0.41 0.41 0.30 0.26 0.23 0.26 0.28 0.26 0.25 0.31 0.31 0.34 0.32 0.37 0.50 0.51 0.47 0.46 0.43 0.42 0.45 0.47 0.49 0.50 0.52 0.57 0.63 0.65 0.61 0.59 0.50 0.46 0.54 0.72 0.81 0.89 0.82 0.88 0.92 0.98 0.99 1.00 1.00 1.04 1.06 1.07 1.02 1.03 1.10 1.10
Wind_Speed
9 9 9 9 9 9 9 9 9 9 8 8 8 7 7 7 6 6 6 5 5 5 5 4 4 3 3 3 3 3 3 2 1 2 3 3 3 4 5 5 5 6 6 7 7 8 7 6 5 5 5 4 5 5 6 6 6 7 9 10 11 10 9 8 7 6 6 5 4 4 5 5 6 6 6 6 5 5 5 4 4 4 5 7 8 9 8 9
10 10 10 10 10 10 10 10 9 9 9 9 9 8 8 8 7 7 6 6 6 6 5 5 4 4 4 4 3 3 2 2 2 3 4 4 4 4 4 4 5 6 6 7 7 7 7 7 5 5 5 4 4 4 6 6 6 7 9 11 10 9 9 8 8 8 7 6 6 5 5 5 5 6 6 5 4 5 5 4 4 5 6 7 8 8 8 10
10 10 11 11 11 11 11 10 10 10 10 10 10 10 9 8 8 8 7 7 7 6 6 6 5 5 4 4 4 3 2 2 2 3 4 4 5 5 4 4 5 4 4 5 6 7 7 8 7 6 5 4 4 3 5 7 8 8 10 11 10 9 10 9 8 8 7 7 7 6 5 6 6 6 6 6 6 5 5 5 5 6 8 8 7 8 9 10
11 11 11 11 12 12 12 11 11 11 11 11 10 10 10 9 9 9 8 8 8 7 7 6 6 5 5 5 4 4 3 2 3 4 3 4 5 6 5 4 4 3 2 4 6 6 7 8 8 7 6 5 3 3 5 6 8 10 10 10 10 9 10 9 7 7 7 7 7 6 6 6 7 7 7 7 6 3 4 5 5 7 9 9 7 8 9 9
11 12 12 12 12 12 13 12 12 12 12 12 11 11 11 10 10 9 9 9 9 8 8 7 7 6 6 5 5 4 3 3 3 4 4 4 5 6 6 5 4 3 1 2 4 6 7 7 7 8 6 6 5 5 6 7 8 11 11 10 10 10 10 9 8 8 7 7 7 6 6 6 6 6 6 7 5 3 5 5 5 7 8 8 7 8 8 8
11 12 12 13 13 13 13 13 13 13 13 13 12 12 12 11 11 10 10 10 10 10 9 8 7 7 6 6 5 5 4 4 4 4 4 4 4 5 5 5 4 3 2 1 4 5 6 6 6 6 6 6 7 7 7 7 9 11 11 10 11 10 11 9 9 8 8 8 7 6 5 5 5 5 5 5 4 4 5 6 6 7 7 7 7 7 7 7
12 12 12 13 13 13 14 14 14 14 13 13 13 13 13 12 12 11 11 11 11 11 10 9 8 8 7 6 6 5 5 6 6 5 6 5 5 5 5 5 4 3 2 1 3 4 5 5 5 6 8 7 7 7 6 8 10 10 10 10 10 11 11 10 9 8 8 8 8 7 7 5 5 5 5 4 4 5 6 6 7 7 7 7 6 6 7 7
12 12 13 13 13 14 14 14 14 14 14 14 14 14 14 13 12 12 11 11 12 11 10 10 9 8 7 7 7 6 7 8 7 6 7 6 5 5 5 5 5 3 2 0 2 4 4 4 6 8 8 7 7 6 5 7 9 9 10 9 10 11 10 10 9 8 8 8 8 9 8 5 6 6 5 4 5 6 7 6 7 7 7 7 6 6 7 7
12 13 13 13 13 14 14 14 14 14 14 14 15 15 14 14 13 13 12 12 12 12 11 10 10 9 8 8 7 7 8 8 7 7 7 6 6 6 6 6 5 4 2 0 1 3 3 3 6 7 7 6 7 6 4 5 7 7 9 9 10 11 11 10 10 9 8 8 9 9 8 6 6 6 5 5 5 7 7 6 7 7 6 6 6 6 7 7
12 13 13 14 14 14 14 14 14 15 15 15 15 15 15 14 14 13 13 12 12 12 11 11 10 9 8 8 7 8 9 8 7 7 7 7 6 7 7 7 6 5 3 1 1 3 4 3 4 6 6 6 7 6 3 5 6 7 9 9 10 11 10 10 9 9 9 8 8 8 8 7 7 6 5 5 6 7 7 6 6 7 6 6 6 6 6 7
13 13 14 14 14 15 14 14 15 15 15 15 15 15 15 14 14 13 13 13 13 12 12 11 11 10 9 9 8 9 9 8 9 8 8 7 7 8 8 8 7 6 4 2 2 3 2 2 4 6 6 6 7 6 6 7 8 8 9 10 10 10 10 9 9 9 9 8 7 8 8 7 7 6 5 6 7 7 7 6 6 6 6 6 6 6 6 7
13 14 14 14 15 15 15 15 15 15 15 15 15 15 14 14 14 13 13 13 13 12 12 12 11 11 10 9 11 11 10 9 10 9 9 8 7 8 8 8 8 7 6 4 3 2 1 2 4 6 5 6 7 6 7 6 6 7 8 9 9 9 10 9 9 9 9 8 8 10 9 7 6 5 5 6 7 7 6 5 5 5 5 6 6 6 6 7
14 14 15 15 15 15 16 15 15 15 15 15 15 15 14 14 14 13 13 13 13 12 12 12 12 11 10 11 12 12 11 10 10 9 9 9 8 8 9 9 9 8 7 6 4 2 1 1 3 4 3 4 5 4 4 4 4 5 5 8 9 9 9 7 8 8 9 9 8 9 9 6 4 4 5 6 7 6 5 4 4 4 3 5 5 6 6 7
14 15 15 15 15 15 16 16 16 16 15 15 15 14 14 14 14 13 13 13 13 12 12 12 12 11 11 12 12 12 12 11 11 11 10 10 9 9 9 9 9 9 8 7 5 3 2 1 0 1 2 2 2 3 4 4 3 4 5 7 7 8 8 6 7 8 9 8 7 9 8 5 5 4 6 5 5 5 4 3 3 3 2 2 5 5 6 6
15 15 15 15 15 15 16 16 16 16 16 15 14 14 14 13 13 13 13 13 13 13 12 12 12 11 11 13 12 11 12 12 12 12 11 11 11 10 10 9 9 10 9 8 7 5 4 2 1 1 0 1 1 3 4 4 2 1 3 4 5 7 6 6 6 7 8 7 6 8 8 6 5 5 6 5 4 4 3 3 3 3 1 1 3 5 5 6
15 15 15 16 15 15 16 16 16 16 16 15 14 13 13 13 13 13 13 13 13 13 13 12 12 12 11 12 12 11 12 13 13 13 12 12 13 12 11 11 10 10 10 9 7 6 5 4 3 2 1 0 1 3 4 4 1 1 1 1 3 5 5 5 5 5 6 8 6 7 7 7 6 4 5 4 3 3 3 3 2 2 1 0 2 4 5 5
15 15 16 16 16 15 16 16 16 16 15 14 13 13 13 13 13 13 13 13 13 13 13 13 12 12 12 12 11 12 13 13 13 13 13 13 14 13 11 11 11 10 10 9 8 7 6 5 4 3 1 1 2 3 4 3 1 1 1 0 1 3 4 4 4 4 5 7 7 7 7 6 6 5 4 3 3 4 4 3 2 1 1 1 0 3 4 5
16 16 16 16 16 16 15 16 15 15 14 13 13 13 12 12 12 12 12 12 12 13 13 13 13 12 12 12 11 12 12 13 13 12 13 14 14 14 12 12 11 10 10 9 9 8 7 6 5 3 1 0 0 2 1 2 2 0 2 3 2 2 3 4 4 4 4 6 7 8 7 6 6 6 3 2 3 4 4 3 2 2 1 1 0 2 3 4
16 16 16 16 16 16 15 15 14 14 13 12 11 11 10 10 10 11 11 12 12 13 13 14 14 12 12 13 12 11 11 12 13 12 13 13 14 13 12 12 12 10 9 9 8 8 7 6 4 4 2 1 2 1 2 3 3 0 4 4 4 3 3 3 5 5 5 6 7 8 7 6 6 5 4 3 4 5 4 4 4 3 2 1 1 1 2 2
16 16 16 17 16 16 15 15 14 13 12 10 9 9 9 9 10 11 11 12 14 14 15 15 16 15 14 14 12 11 10 11 12 12 13 13 13 13 12 11 11 10 10 10 9 8 8 7 6 6 5 4 4 3 3 4 4 2 5 5 4 3 3 3 4 5 5 6 6 7 8 7 6 5 5 6 6 6 5 5 4 3 2 1 1 1 2 2
16 17 17 17 16 16 15 14 14 12 10 9 8 7 8 9 10 11 12 13 14 15 16 17 17 17 16 15 13 11 10 11 11 12 13 13 12 12 12 11 11 10 11 12 10 8 8 8 8 7 7 6 4 3 4 4 3 3 5 4 3 3 3 3 5 5 4 5 5 6 8 7 6 6 6 7 7 5 4 4 4 3 2 2 1 1 1 2
16 16 17 17 16 16 15 14 14 11 9 8 7 7 8 9 10 11 12 13 15 15 16 17 18 17 17 16 15 14 12 12 12 12 13 13 13 13 12 11 11 11 12 11 10 8 8 10 10 8 6 4 3 2 3 4 2 3 4 3 3 3 3 4 4 4 3 4 4 5 7 7 6 7 7 7 6 5 4 3 3 2 2 2 1 1 1 1
16 16 16 16 16 15 14 14 12 9 9 8 8 7 8 9 10 11 11 12 14 15 16 17 18 18 17 16 15 15 14 13 13 14 13 13 13 14 13 11 12 12 11 11 11 10 10 11 10 7 4 4 4 3 2 3 2 2 4 2 3 4 3 3 3 3 3 3 4 5 7 7 8 9 8 7 6 6 5 5 4 3 2 2 2 2 2 1
15 15 16 15 15 14 14 14 10 8 9 9 8 8 8 9 10 10 10 11 12 13 15 16 18 18 18 16 14 14 14 13 14 13 14 14 13 13 13 12 11 11 11 12 12 12 12 11 9 7 5 5 6 5 3 1 2 2 4 2 3 5 3 2 3 4 3 3 4 6 8 7 8 9 8 8 8 7 6 5 5 4 3 3 2 2 2 2
15 15 15 15 14 14 14 10 7 8 9 7 7 8 8 9 9 9 9 9 11 11 12 14 16 17 18 16 14 14 13 14 15 14 14 15 14 13 13 12 11 11 12 12 12 13 13 11 9 8 6 5 6 6 4 2 0 2 5 4 4 6 4 2 4 4 3 2 2 3 6 6 6 7 7 8 8 8 7 5 4 4 4 3 3 2 2 2
14 14 14 14 13 14 12 6 6 9 8 7 7 8 8 9 8 8 7 7 9 10 10 12 13 15 17 16 15 13 11 12 15 15 14 15 15 14 12 12 11 11 12 12 11 12 12 12 10 9 8 7 7 6 4 3 1 1 3 4 5 6 3 4 6 3 2 2 3 0 4 5 5 6 6 6 7 7 7 5 4 4 3 3 2 2 3 2
14 14 14 14 13 12 9 6 8 8 6 6 7 8 8 8 7 6 5 5 7 8 9 10 11 12 14 16 15 12 10 11 13 14 15 15 15 14 13 12 11 11 11 10 11 12 13 12 10 9 8 7 8 8 5 3 1 2 2 2 6 7 3 5 6 3 1 3 3 1 3 4 4 5 5 5 7 7 7 6 5 4 3 2 2 2 2 2
14 14 13 13 13 11 8 7 8 6 5 6 7 7 7 6 5 4 4 4 5 7 8 9 10 10 12 15 16 14 11 10 10 12 14 15 14 14 14 13 12 12 11 11 12 13 12 12 10 7 6 7 9 10 8 3 2 5 4 2 4 5 3 4 5 3 2 4 3 2 2 5 6 6 5 5 6 6 6 5 4 4 3 3 2 2 2 2
13 13 13 13 13 10 7 7 7 5 5 6 7 6 4 4 3 2 3 3 5 5 6 8 9 10 11 13 15 15 12 10 10 12 13 14 14 13 14 14 13 13 13 13 14 14 13 12 10 7 6 7 9 10 8 4 3 5 4 2 2 2 1 2 4 4 3 3 2 2 2 4 5 5 4 5 5 5 5 4 4 4 3 3 3 3 3 3
13 13 12 12 11 8 7 7 6 5 6 6 6 4 2 1 2 3 2 4 5 4 5 6 7 9 10 11 12 13 12 10 11 12 12 13 13 13 14 14 13 13 12 13 14 14 14 13 11 8 7 9 9 9 8 6 5 3 2 2 1 0 1 1 4 5 3 0 1 1 2 3 4 5 4 4 4 4 4 5 5 4 4 4 3 3 3 3
13 12 12 11 9 8 6 5 4 5 5 5 4 1 1 2 4 4 3 4 5 3 4 5 7 9 10 11 11 12 11 10 10 11 12 11 11 12 14 12 12 12 10 11 13 13 13 12 11 9 8 9 9 8 7 5 4 3 3 3 2 1 1 2 4 3 1 3 3 1 2 4 4 4 4 3 3 3 4 4 5 4 4 4 4 4 3 3
12 12 12 10 8 7 6 5 4 4 4 2 1 2 4 4 3 4 3 3 3 4 5 5 6 8 10 11 11 11 11 10 11 11 11 11 10 12 14 14 13 12 11 12 12 12 12 13 11 9 8 9 10 8 6 4 3 3 4 3 3 1 1 3 3 2 2 2 3 3 2 4 4 4 3 3 3 3 4 3 4 5 5 5 4 4 4 4
12 12 11 9 7 6 6 5 4 3 1 2 4 5 5 4 3 3 3 2 2 3 4 4 5 7 9 10 10 11 10 9 11 10 10 10 9 12 15 15 14 13 12 12 11 11 11 12 11 7 8 10 11 8 6 6 4 3 4 4 4 2 1 2 3 2 1 1 3 2 2 3 3 5 4 3 3 3 3 3 4 5 5 5 4 4 5 4
13 11 10 8 6 6 5 4 3 2 3 4 5 6 5 4 3 3 3 2 2 4 4 4 5 7 9 9 9 9 9 9 10 9 9 9 9 11 13 14 15 14 13 11 11 12 11 11 11 9 8 10 11 10 9 8 6 5 5 5 5 4 3 3 4 4 3 2 3 2 2 1 1 4 3 3 4 4 4 3 4 5 5 5 5 5 5 5
12 10 8 7 5 4 4 3 3 4 6 6 6 6 5 4 3 4 3 2 3 5 5 5 6 7 8 8 8 9 9 8 9 8 7 8 9 11 12 13 15 15 14 12 12 13 12 11 12 10 9 11 12 11 10 8 6 6 4 3 5 6 4 2 3 6 5 3 2 1 2 1 1 3 3 3 4 4 4 4 4 5 4 5 5 5 5 4
10 8 6 5 3 2 3 4 4 6 8 7 6 6 5 5 4 3 3 3 3 5 5 5 6 6 6 7 6 8 8 7 8 7 7 8 8 10 11 12 15 16 16 14 12 11 12 11 10 9 9 12 13 12 10 9 8 6 3 3 5 5 4 3 3 4 4 2 2 1 0 1 2 3 3 2 4 5 5 5 5 5 4 4 4 4 4 4
9 7 5 3 2 3 5 4 5 7 8 7 7 6 4 4 3 2 3 3 2 3 4 4 5 5 6 6 6 8 7 6 7 7 7 7 7 9 10 11 14 17 17 15 13 11 11 10 9 10 11 12 12 13 11 11 10 7 5 4 3 2 3 4 4 3 3 2 2 2 2 1 1 1 2 1 2 3 4 5 5 5 5 4 4 4 4 4
8 6 4 2 1 4 5 4 6 8 8 7 6 5 4 3 3 2 2 1 0 3 4 4 4 5 6 6 5 7 7 6 7 7 6 7 7 9 10 10 13 17 18 16 14 12 10 8 7 9 13 12 10 11 11 10 9 8 7 5 3 2 2 4 5 4 3 2 2 2 1 2 2 1 1 1 0 1 3 4 5 5 5 5 4 5 5 5
6 4 2 1 3 4 5 5 6 7 8 7 7 5 4 3 2 2 2 2 1 3 3 3 3 4 5 6 5 5 7 7 7 6 6 6 7 8 9 10 12 16 18 17 15 13 10 8 7 7 11 12 9 10 12 11 8 7 7 5 3 4 4 4 5 5 4 3 3 2 2 3 3 2 2 2 1 2 4 3 3 4 5 5 5 5 5 5
5 3 2 2 4 5 5 6 6 6 7 8 7 5 2 2 3 4 5 4 2 3 3 3 3 2 2 5 6 6 6 7 6 5 5 6 6 6 8 10 11 14 16 16 15 13 10 9 8 7 9 13 10 10 13 12 10 8 8 7 5 5 4 3 3 4 4 4 3 2 2 4 4 2 2 2 2 3 4 3 2 3 4 5 4 4 5 5
4 3 3 2 4 5 5 5 5 7 7 7 6 5 4 4 4 5 5 5 3 4 5 5 4 3 2 3 5 7 8 7 6 4 5 6 5 4 7 10 12 12 13 14 14 13 11 10 8 7 10 13 11 10 12 13 12 10 8 8 7 5 4 3 4 5 4 5 5 4 3 4 3 1 2 2 1 2 4 4 3 3 4 4 4 4 5 5
4 4 4 3 3 3 3 4 5 7 7 6 6 6 6 6 5 5 5 4 4 5 6 6 4 3 3 2 3 6 8 8 6 5 6 7 6 5 6 10 13 13 13 13 13 13 11 9 7 7 11 13 10 10 11 12 11 10 8 8 7 5 4 4 5 5 4 4 6 5 2 4 3 1 3 3 3 3 5 5 4 3 3 3 3 4 5 5
5 6 6 5 4 4 4 4 5 7 6 6 7 7 7 6 5 6 5 4 5 5 6 5 4 3 2 2 2 3 7 10 7 6 7 7 6 5 7 11 12 12 13 12 12 12 11 9 8 8 9 10 9 9 9 10 9 9 8 7 7 6 6 6 6 6 5 5 6 4 2 4 3 2 4 3 4 5 5 5 5 4 3 2 2 4 5 6
7 7 7 6 5 5 5 4 6 6 5 5 5 5 6 5 6 7 6 5 5 6 6 5 4 4 3 3 2 2 6 8 7 7 7 6 6 6 9 12 11 11 12 12 11 12 11 9 8 7 5 6 7 7 8 10 10 11 10 8 8 7 5 4 5 5 5 5 6 4 3 5 4 2 3 3 4 4 4 5 5 4 3 2 2 4 5 6
8 8 8 7 6 6 6 5 6 6 5 4 5 5 5 6 6 5 5 6 6 7 8 6 5 5 5 3 1 2 4 4 4 6 7 5 6 7 10 12 11 10 12 13 12 12 11 9 8 7 6 6 8 8 9 9 10 10 9 8 8 7 5 5 6 5 5 5 5 5 5 5 3 2 3 3 3 3 3 4 4 3 2 1 2 3 5 6
8 8 8 7 6 6 6 6 5 5 5 5 5 5 4 5 6 4 3 4 5 7 8 7 6 5 4 3 1 2 4 2 1 4 6 6 5 7 10 11 9 10 12 14 14 12 10 9 9 8 7 7 9 9 9 8 8 7 6 6 6 5 6 7 5 6 7 6 4 4 6 7 5 3 4 3 3 3 3 3 3 2 1 1 2 3 5 6
9 9 8 8 8 6 6 6 5 4 5 5 5 6 5 6 6 5 3 3 4 6 8 7 6 5 3 3 3 3 3 3 2 2 3 5 5 5 8 9 8 10 13 15 15 13 10 9 9 9 7 6 6 8 8 8 7 6 5 5 4 4 7 7 5 7 8 6 4 5 6 7 5 4 4 4 3 2 2 2 2 1 1 2 3 4 5 6
10 10 8 8 9 8 8 8 7 7 7 6 6 7 6 6 5 5 5 5 4 4 6 6 6 6 5 4 4 4 4 3 4 1 1 4 6 5 6 6 6 10 14 14 14 14 11 10 10 8 6 3 2 5 9 10 7 5 6 6 4 4 6 6 5 6 7 5 6 7 5 4 3 4 4 4 4 3 2 2 2 1 1 2 3 5 6 6
11 11 10 9 9 10 11 10 10 9 7 6 6 6 6 5 5 5 6 6 5 5 6 6 7 8 7 6 5 5 4 4 5 3 0 3 6 6 6 6 6 10 13 13 14 14 12 11 10 7 5 3 5 10 13 11 8 6 6 5 5 5 5 4 5 5 5 5 7 7 6 3 2 3 4 4 4 4 2 2 1 1 2 3 4 5 6 6
11 11 11 11 11 11 12 11 10 9 8 6 6 7 6 5 5 6 6 5 7 7 6 6 8 8 8 7 6 7 7 6 6 6 3 2 4 7 8 7 7 10 13 14 13 14 14 11 9 7 5 4 8 11 11 9 8 8 7 5 6 7 6 4 5 6 6 6 7 7 7 3 1 2 5 5 4 3 1 1 1 2 3 4 5 5 6 6
13 13 13 13 12 12 12 11 10 10 9 8 7 7 6 5 6 7 6 6 8 8 7 7 7 8 9 8 6 8 8 7 7 8 7 5 6 8 9 8 8 10 14 15 13 14 14 11 9 8 6 6 9 11 10 9 8 8 7 6 6 7 6 5 5 5 7 8 8 7 6 4 3 3 4 4 3 1 1 2 2 3 4 4 5 5 5 5
14 14 14 14 14 13 12 11 11 11 10 9 8 8 7 7 8 8 6 6 7 8 8 7 7 7 9 9 8 10 9 8 9 9 8 7 8 9 7 8 9 11 14 15 14 14 15 12 10 9 7 8 9 9 9 8 6 4 4 4 5 6 7 6 4 3 5 7 7 6 5 5 4 3 2 1 0 1 3 3 3 4 4 4 5 5 5 4
Wind_Direction
302 302 302 303 303 304 304 305 305 306 308 309 308 305 299 294 290 288 285 283 282 281 282 281 278 275 273 278 285 293 303 295 235 183 175 167 151 140 127 103 90 96 84 65 55 48 43 36 27 33 35 21 20 21 20 25 38 41 34 29 30 33 34 40 51 59 69 77 100 128 143 139 142 149 146 143 141 146 150 152 160 166 173 167 161 159 154 150
301 300 300 300 301 301 301 301 301 301 302 303 304 302 298 291 286 283 281 278 277 277 275 274 273 272 269 271 276 287 293 265 233 213 201 186 166 155 143 117 106 105 83 64 60 56 43 30 26 35 39 23 18 32 32 36 52 48 34 32 32 36 38 44 62 72 73 83 100 109 119 120 129 144 147 145 140 146 148 148 156 162 167 164 161 161 157 153
302 300 298 298 299 299 299 298 298 297 297 298 299 299 296 290 284 279 277 274 273 273 271 270 268 267 267 265 269 280 279 249 222 212 202 191 187 178 161 142 131 119 81 58 54 49 36 27 26 24 28 20 13 38 42 44 53 47 40 34 32 41 45 52 72 80 79 89 97 97 106 110 120 137 140 136 129 134 148 152 158 163 166 165 163 164 160 155
303 301 299 298 297 297 297 297 296 294 294 294 294 295 293 288 282 277 275 271 269 268 266 266 264 264 263 261 265 265 256 229 204 197 181 175 185 184 174 163 156 145 83 53 41 33 23 21 21 13 28 44 35 59 58 61 59 46 44 38 41 52 50 58 75 78 83 90 92 92 100 107 117 128 129 127 123 132 158 159 161 164 165 164 163 166 164 159
302 301 300 299 297 296 296 295 294 293 292 290 290 290 289 286 280 275 272 268 266 264 263 262 260 260 259 259 260 250 231 203 198 193 179 171 174 176 174 170 170 164 114 57 25 21 15 18 21 15 38 66 63 66 61 73 65 43 44 50 54 57 51 62 74 76 86 84 83 89 98 113 119 126 128 127 133 154 161 156 154 156 159 161 160 165 166 162
302 301 301 300 298 296 295 294 293 292 290 288 288 287 285 282 277 273 269 266 264 261 260 259 256 255 255 256 250 239 218 204 210 202 188 178 174 177 173 172 175 168 148 58 9 16 19 24 30 30 53 68 61 62 57 70 66 44 46 56 57 57 56 67 76 77 84 80 79 83 92 115 121 129 139 138 147 155 149 148 148 148 154 158 157 163 170 170
303 303 302 301 299 297 295 293 291 290 289 288 286 284 282 278 274 271 267 264 261 259 257 255 254 251 252 249 240 235 223 223 229 208 194 187 180 182 179 180 177 169 163 54 8 12 18 26 39 50 63 68 65 63 58 69 69 51 48 56 58 60 65 72 80 79 82 83 78 75 78 100 122 133 144 142 138 139 140 145 148 148 151 157 159 167 177 179
304 305 304 303 301 299 297 294 291 290 289 287 285 283 280 276 271 268 265 262 259 257 254 251 250 249 248 240 235 239 231 228 225 202 195 199 196 191 186 189 184 175 174 114 9 22 31 39 45 51 58 68 67 57 69 76 64 50 52 60 58 58 67 73 77 79 81 81 75 74 73 87 116 125 135 140 130 134 142 148 153 153 156 164 169 178 185 184
303 304 305 305 304 302 299 296 293 290 288 287 285 283 279 274 269 266 263 261 257 254 251 247 246 246 243 235 232 239 230 218 212 200 198 207 209 203 196 195 191 184 181 218 9 54 72 72 48 40 46 58 52 47 98 89 51 54 65 67 60 58 65 70 73 78 79 79 78 77 72 81 106 108 115 135 133 138 148 153 161 163 166 176 180 187 191 191
303 303 305 305 306 304 301 298 295 292 289 287 284 282 279 273 267 264 261 259 255 251 247 243 242 241 239 233 226 231 226 214 210 206 201 206 210 206 203 201 195 190 187 190 91 95 84 70 38 30 41 50 38 32 93 95 66 81 83 70 64 64 67 71 74 76 75 77 84 80 74 86 98 91 95 124 133 139 149 154 165 170 175 186 191 198 199 200
305 304 304 304 305 305 303 300 297 294 291 288 284 281 277 271 266 263 260 258 253 248 243 240 238 237 237 232 223 225 222 213 214 211 203 203 207 208 207 204 199 194 191 190 158 126 70 34 34 39 53 55 43 38 64 92 96 98 87 65 62 64 63 69 69 71 70 68 83 81 73 83 85 78 93 122 129 135 144 147 159 171 183 194 196 206 210 211
308 306 305 304 304 304 304 302 299 296 293 290 285 280 274 268 263 260 258 255 251 245 241 237 235 235 236 234 228 226 223 216 215 214 210 208 210 210 207 204 204 201 196 196 201 192 53 33 39 44 60 57 59 66 62 76 99 102 86 62 60 59 56 65 66 68 66 60 82 81 64 68 75 76 98 120 130 132 136 143 157 169 185 197 197 205 212 215
310 309 307 306 305 304 303 302 300 297 295 291 286 279 272 265 260 257 254 251 247 243 240 236 235 235 236 235 230 226 226 223 217 218 219 217 215 212 207 206 208 208 205 205 216 219 216 28 34 41 60 58 66 79 50 46 97 105 71 49 56 51 45 60 64 66 64 63 86 76 54 56 63 80 105 120 133 130 133 149 162 167 184 199 200 204 208 212
312 311 309 307 306 305 302 301 300 298 296 292 285 278 270 263 257 253 250 247 244 241 238 235 235 235 235 236 234 230 230 225 218 218 218 216 215 213 210 209 212 215 213 215 222 224 230 259 347 46 59 75 72 51 41 57 100 99 50 33 42 43 40 49 59 67 62 64 87 70 55 61 57 84 116 120 128 127 131 138 143 148 149 193 207 210 213 216
313 312 310 309 309 306 303 301 298 297 295 291 284 276 268 261 256 252 248 245 241 238 237 235 235 235 237 239 235 232 230 224 219 218 217 215 212 212 212 211 215 218 218 219 222 226 230 237 227 207 22 31 28 24 38 54 76 104 54 25 25 38 43 48 63 75 59 59 82 64 53 56 54 88 118 116 121 123 116 106 115 140 125 181 219 219 224 228
313 312 310 310 311 308 305 301 298 297 294 290 282 273 264 259 255 251 247 243 240 237 234 234 233 232 234 235 232 231 229 224 222 223 223 219 214 215 215 213 217 220 220 221 220 227 230 224 220 212 208 350 48 51 37 29 355 254 7 7 27 42 44 50 68 79 60 61 68 57 54 52 51 84 114 115 117 101 92 93 104 136 127 41 222 218 225 235
313 312 310 310 311 309 306 303 300 297 293 288 279 269 264 260 255 250 246 243 241 238 234 233 233 233 233 230 228 229 227 224 224 225 224 220 218 219 216 213 218 220 221 226 226 227 225 212 203 199 178 144 91 72 40 22 25 275 282 180 48 51 56 52 64 79 69 61 55 55 59 53 56 81 107 112 94 78 84 100 95 91 82 32 215 210 221 231
313 311 310 310 310 309 307 304 301 299 294 286 277 268 264 262 255 247 244 243 242 239 236 233 230 230 229 225 226 230 230 225 223 223 220 219 219 218 218 218 219 220 222 227 225 218 216 210 197 192 176 165 72 73 60 13 32 306 194 139 102 86 79 54 59 83 85 60 53 59 57 50 60 71 91 95 68 71 78 77 61 40 20 19 5 217 228 232
315 313 311 310 310 309 307 305 303 301 295 286 277 267 259 259 251 241 245 248 244 239 235 230 224 224 226 225 227 233 231 221 217 219 217 216 217 216 221 221 216 215 215 218 219 210 208 211 203 201 207 246 263 204 211 288 353 68 171 141 125 111 77 48 57 86 94 63 55 62 56 53 60 57 62 61 49 60 60 43 42 34 16 6 328 246 237 238
316 314 313 312 311 310 307 304 302 301 294 285 280 267 255 260 252 245 255 255 244 239 238 233 226 228 232 230 230 234 230 217 215 218 215 214 212 213 219 219 214 212 209 210 216 213 207 211 214 209 214 239 255 245 246 287 347 97 152 144 137 114 82 66 71 94 96 64 53 58 54 56 59 46 48 55 49 54 50 32 31 30 18 8 334 259 244 266
316 315 315 313 312 311 308 304 301 299 293 282 279 266 255 260 253 250 260 256 247 241 239 236 229 229 234 231 231 234 228 220 220 220 216 212 208 210 216 214 210 216 217 213 214 217 211 211 216 214 218 233 244 259 272 302 8 107 145 137 139 128 97 85 89 107 98 66 57 55 56 58 56 44 47 59 56 48 43 29 20 16 14 23 17 313 266 295
317 316 315 314 313 312 309 305 300 295 289 282 277 263 255 260 257 256 258 254 251 244 237 236 231 230 232 231 232 234 228 223 226 225 218 212 209 210 213 209 206 215 221 216 212 217 216 213 215 216 223 239 242 253 278 306 7 131 150 130 144 142 94 84 98 108 88 66 59 56 60 55 45 45 52 60 54 39 33 16 4 3 6 21 26 12 2 327
319 318 317 315 314 312 309 305 297 287 288 287 277 269 266 266 267 268 260 250 250 246 237 233 229 227 228 229 230 228 224 221 223 225 218 212 210 209 209 206 206 214 216 210 206 208 213 211 211 218 233 246 244 251 275 315 0 169 175 145 162 163 117 105 133 127 92 73 72 66 57 41 32 39 43 45 40 34 27 11 7 6 356 4 19 30 39 25
321 321 320 318 315 313 310 304 289 283 294 288 273 273 276 273 272 275 264 249 247 244 235 227 224 224 224 225 224 220 220 220 219 221 215 209 209 207 207 205 205 213 214 207 203 206 212 211 212 225 238 236 237 250 261 293 3 226 206 188 173 181 164 124 142 138 95 65 84 76 49 26 26 35 32 29 31 30 24 18 16 9 360 14 30 39 47 39
322 323 323 322 320 316 312 299 278 290 295 278 268 275 280 279 277 277 265 251 246 241 231 222 220 221 221 221 221 220 221 222 218 216 211 207 205 204 206 206 203 210 213 209 205 207 213 213 215 226 236 245 241 239 235 208 309 271 228 214 179 180 182 143 146 135 96 73 154 92 41 11 9 29 28 22 28 24 17 16 14 14 14 24 37 47 54 49
319 321 323 323 323 322 317 297 285 299 288 266 271 279 281 280 282 280 260 249 246 235 224 216 214 217 218 217 217 216 219 224 219 212 207 206 206 203 204 207 204 207 208 206 207 207 208 209 215 229 242 249 234 217 202 178 164 299 244 209 176 177 175 156 167 161 122 166 188 136 26 11 355 13 17 17 28 20 8 9 12 27 30 20 35 60 66 62
316 319 321 321 324 325 317 298 302 302 279 270 282 289 287 278 281 276 247 244 243 224 215 213 211 212 213 212 210 206 212 221 213 207 206 206 207 203 204 211 207 207 205 202 211 210 204 209 221 237 243 233 214 206 200 172 155 278 250 163 169 192 204 174 181 205 196 143 146 261 26 38 360 1 15 19 27 15 3 6 9 26 37 27 43 65 70 71
313 316 318 318 320 319 303 296 304 296 274 283 294 296 288 276 276 256 216 227 226 208 206 209 209 208 208 208 205 204 210 210 201 207 208 203 205 203 206 212 207 209 211 205 214 212 202 209 223 232 235 219 206 205 205 194 254 253 230 168 171 200 220 197 198 218 175 132 135 240 21 36 2 5 28 20 16 8 360 5 12 29 44 41 52 61 66 72
313 314 316 316 317 312 298 295 294 281 283 296 302 301 288 276 260 202 187 198 196 198 200 200 203 204 203 203 205 207 210 208 204 210 207 202 208 206 206 211 207 214 218 209 211 212 205 211 219 220 218 212 208 209 206 197 235 244 220 185 168 173 170 194 197 185 154 131 155 231 345 28 6 3 20 11 5 7 8 17 29 44 52 53 59 65 72 76
313 313 316 316 314 309 303 298 282 271 289 303 304 298 274 242 168 147 170 184 179 192 193 194 203 199 195 199 206 206 206 212 213 206 202 204 210 211 210 211 210 214 218 213 212 212 212 218 223 221 214 206 204 208 205 195 210 229 182 152 144 21 335 214 192 173 144 203 229 252 332 23 14 348 352 6 2 16 31 32 40 52 57 60 63 65 73 78
313 312 315 315 309 304 301 297 278 273 293 301 296 270 160 144 137 135 155 172 174 189 189 197 204 195 192 197 202 201 201 213 212 196 199 208 211 213 211 212 215 215 216 216 215 215 218 221 223 223 216 200 191 198 206 205 215 205 165 155 166 292 338 161 184 180 180 263 245 175 37 35 22 343 339 2 6 31 46 38 45 64 68 64 61 58 63 69
314 313 313 310 301 293 288 281 278 288 296 280 204 142 129 125 137 150 158 163 175 191 190 200 204 196 194 193 195 197 195 205 206 196 202 211 212 212 209 207 209 211 214 213 212 218 219 218 221 225 219 197 181 192 212 213 202 183 172 161 162 205 54 140 181 199 219 247 207 158 76 27 8 344 348 12 20 37 52 51 61 78 78 69 64 57 57 58
316 314 312 307 296 288 282 270 271 282 254 181 145 131 122 116 129 148 157 171 171 173 174 179 188 185 183 184 192 195 191 201 207 201 207 212 213 215 214 211 204 202 209 208 207 215 217 221 224 221 218 200 180 185 206 202 187 185 189 175 168 168 139 175 204 215 217 211 188 189 21 16 354 351 360 20 36 60 76 78 86 93 88 77 67 57 51 48
317 316 311 305 296 284 270 250 242 216 171 152 135 128 121 120 133 123 130 151 141 149 153 146 155 165 172 181 189 188 186 200 205 199 205 211 212 216 218 216 208 202 204 206 208 208 207 217 216 204 207 201 189 192 199 193 189 198 198 188 196 203 185 198 216 207 195 174 190 253 1 47 350 351 352 27 55 85 90 79 89 96 90 77 64 54 51 46
319 315 309 305 300 275 236 209 195 172 159 143 130 131 128 133 132 105 100 96 111 140 138 125 137 152 169 180 186 185 183 196 202 197 207 212 212 214 215 215 210 202 200 205 210 206 202 212 214 210 208 199 198 204 195 186 194 201 192 193 222 224 211 213 204 184 174 162 202 274 357 284 341 1 354 39 64 71 70 76 87 88 84 76 65 57 56 52
321 321 316 308 298 230 181 170 163 159 155 142 135 144 146 140 128 102 89 68 85 131 124 114 133 146 165 176 189 195 188 193 200 203 215 217 216 215 213 213 208 201 199 201 204 201 202 213 218 218 216 206 204 205 197 192 195 198 205 221 226 216 193 176 168 166 153 144 226 242 47 329 11 14 348 36 64 51 57 78 82 79 83 76 65 60 59 58
324 328 324 314 284 181 164 157 156 160 158 144 144 158 155 139 135 131 108 69 72 131 127 133 147 149 163 171 185 192 187 195 202 205 216 219 222 217 212 213 207 201 198 197 202 200 195 212 222 213 216 216 205 201 204 201 193 199 219 209 197 187 166 160 160 165 148 150 237 220 166 167 63 2 315 10 59 38 59 77 70 66 72 66 57 58 58 59
319 322 317 307 186 161 160 159 160 165 163 152 155 166 157 143 151 153 142 71 68 145 137 148 160 163 167 170 181 182 178 189 200 205 210 215 227 218 208 210 208 204 198 192 202 204 193 210 232 216 210 208 195 196 211 213 202 205 208 190 168 182 185 171 171 178 176 186 236 246 223 210 206 228 221 191 145 68 84 77 65 62 63 62 58 57 57 59
311 312 299 223 172 158 158 166 165 164 166 166 170 174 165 169 204 255 260 257 213 154 152 159 166 173 180 192 207 190 180 192 201 209 209 210 225 220 208 206 204 203 197 189 197 204 196 206 236 232 206 194 190 199 205 207 205 201 202 203 201 192 185 184 191 192 188 204 228 246 278 255 227 215 184 185 188 125 109 83 71 72 69 68 66 62 60 57
298 289 268 221 189 174 164 168 169 166 172 179 184 188 194 201 243 283 275 254 214 170 180 183 170 168 192 216 225 210 194 198 205 217 215 208 217 226 215 204 197 199 195 189 194 199 198 207 230 240 199 185 195 204 197 197 196 190 199 211 210 202 202 203 214 212 200 211 231 232 259 248 226 204 160 174 178 140 122 103 90 90 87 80 74 67 51 40
279 263 251 214 175 173 169 170 177 176 179 188 195 207 219 211 237 278 277 262 239 197 189 184 178 190 217 238 230 212 203 207 213 217 212 204 208 228 215 196 191 191 187 189 196 197 198 206 219 221 192 187 201 203 191 191 190 187 200 211 204 201 214 236 255 246 217 205 204 193 219 241 226 163 130 142 133 137 130 121 116 108 101 88 69 53 33 26
255 241 233 209 176 183 184 188 192 183 185 199 210 222 233 229 234 259 270 263 243 208 185 180 187 207 225 244 230 210 207 212 218 220 212 204 206 223 209 191 190 186 180 189 198 196 198 202 205 207 197 197 209 206 194 191 189 194 208 208 193 192 220 242 244 230 203 186 185 177 200 237 229 133 118 113 101 127 133 126 119 105 97 84 59 39 24 17
247 246 240 237 230 213 200 209 207 193 198 217 220 229 245 241 235 251 258 245 222 198 182 189 206 211 224 239 242 224 212 210 218 226 214 208 216 220 196 185 185 181 179 188 195 195 198 197 198 210 209 207 216 215 207 201 195 202 215 210 203 219 248 252 233 207 185 181 181 177 230 238 227 137 126 121 104 112 120 120 111 94 88 85 50 26 14 5
251 248 238 243 243 214 195 202 204 199 209 226 229 242 253 242 243 257 248 226 211 193 187 202 214 212 227 232 236 235 205 203 223 227 208 211 229 213 186 180 179 179 186 192 188 188 192 190 187 193 196 201 209 211 215 218 212 211 222 230 232 241 251 240 219 198 187 198 191 179 215 228 216 155 140 126 102 101 107 115 113 103 104 93 26 8 1 359
246 236 230 245 244 212 200 199 197 203 215 228 241 251 248 241 255 260 223 215 220 203 197 213 225 225 228 224 236 222 184 183 228 219 203 219 235 208 187 183 183 187 195 193 181 177 183 184 177 172 173 186 191 194 203 210 208 210 221 233 237 239 217 190 190 184 183 197 197 187 193 200 194 159 146 130 115 115 115 113 108 103 107 74 2 350 349 353
234 227 228 242 237 215 214 216 212 218 226 230 235 234 241 258 265 253 193 208 227 212 207 216 224 228 228 221 232 206 188 189 210 195 199 218 227 205 189 187 194 200 196 187 178 175 181 186 180 174 175 181 190 203 207 192 184 195 212 219 225 223 203 195 198 195 184 176 188 204 184 170 170 169 160 153 141 141 141 126 105 90 77 350 332 332 335 340
227 224 224 230 232 228 229 232 232 231 235 243 235 230 255 278 264 238 211 225 236 222 218 219 215 214 218 222 215 202 213 222 176 157 215 215 203 188 182 185 199 199 188 183 181 178 180 190 187 180 180 185 201 215 204 176 172 184 185 186 197 192 186 190 200 199 189 172 182 203 174 159 172 181 177 185 177 161 162 145 115 90 37 346 331 325 324 329
228 228 225 224 225 222 221 231 240 240 246 255 240 233 254 273 257 236 231 241 245 222 215 222 220 205 192 196 204 210 224 211 181 146 349 196 186 181 185 193 203 191 181 183 188 181 177 187 187 177 182 194 176 162 154 147 155 166 157 153 157 163 171 178 188 196 194 182 184 183 161 154 190 192 190 198 180 158 151 125 102 78 17 343 330 329 328 329
230 230 229 229 227 224 225 232 238 239 243 247 233 231 249 262 254 241 234 238 244 230 212 218 228 216 198 193 200 208 212 196 199 220 352 170 187 192 195 201 207 196 184 184 192 184 175 184 187 174 177 162 112 125 137 137 132 128 124 125 128 132 144 157 167 173 169 163 165 157 138 138 202 189 177 174 155 144 134 90 67 20 340 334 335 336 330 328
231 231 233 233 231 231 233 232 230 229 233 232 228 232 247 266 265 248 236 228 231 234 224 221 233 228 209 197 194 204 206 190 200 225 226 190 196 198 200 204 208 203 191 186 193 188 181 189 192 176 172 159 130 128 132 129 121 117 112 111 117 119 119 127 144 151 153 155 152 139 130 134 199 169 147 143 141 140 116 16 352 323 325 332 335 334 331 337
233 233 233 231 229 230 233 231 225 223 222 223 230 234 238 265 271 252 241 228 218 222 227 229 236 227 214 208 205 213 215 204 210 227 225 214 207 198 200 207 205 198 192 189 191 188 185 193 196 180 171 164 147 135 131 125 111 107 112 115 117 124 132 138 143 148 157 158 148 135 138 156 185 166 138 132 138 152 301 312 309 303 309 324 333 340 349 354
236 233 230 228 226 227 229 229 225 222 220 223 240 245 240 264 273 251 239 243 229 221 224 229 230 221 217 221 221 220 224 228 235 236 226 219 214 205 208 216 205 191 187 185 186 186 183 184 189 185 171 162 155 147 147 144 119 110 135 133 128 137 139 133 126 126 153 162 159 157 167 180 192 183 156 141 236 268 275 279 284 287 300 322 336 351 2 355